Wetterdaten: aktuell Donnerstag, 21.06.2018 16:30
Datum Zeit Temp. I. Temp. A. Feuchte I. Feuchte A. Luftdruck Regen Wind Richtung Richtung Taupunkt Windchill Windben
21.06.2018 16:30 27,7 C 17,6 C 29 % 43 % 1017,6 hPa 0,0 l/m 32,2 km/h W-NW 292 4,9 C 11,0 C 43,5 km/h
21.06.2018 16:25 27,6 C 17,9 C 30 % 42 % 1017,6 hPa 0,0 l/m 29,0 km/h W-NW 292 4,8 C 11,9 C 43,5 km/h
21.06.2018 16:20 27,5 C 18,3 C 29 % 42 % 1017,7 hPa 0,0 l/m 25,7 km/h W-NW 292 5,2 C 13,0 C 37,0 km/h
21.06.2018 16:15 27,3 C 17,9 C 30 % 42 % 1017,6 hPa 0,0 l/m 22,5 km/h W-NW 292 4,8 C 13,0 C 37,0 km/h
21.06.2018 16:10 27,2 C 17,7 C 30 % 41 % 1017,5 hPa 0,0 l/m 30,6 km/h W 270 4,3 C 11,4 C 43,5 km/h
21.06.2018 16:05 27,1 C 17,8 C 30 % 41 % 1017,6 hPa 0,0 l/m 32,2 km/h W-NW 292 4,4 C 11,3 C 43,5 km/h
21.06.2018 16:00 27,0 C 17,8 C 31 % 40 % 1017,5 hPa 0,0 l/m 38,6 km/h W-NW 292 4,0 C 10,6 C 49,9 km/h
21.06.2018 15:55 26,8 C 18,1 C 30 % 41 % 1017,5 hPa 0,0 l/m 29,0 km/h W-NW 292 4,6 C 12,2 C 45,1 km/h
21.06.2018 15:50 26,8 C 17,8 C 30 % 40 % 1017,5 hPa 0,0 l/m 35,4 km/h W-NW 292 4,0 C 10,9 C 53,1 km/h
21.06.2018 15:45 26,8 C 17,8 C 29 % 39 % 1017,5 hPa 0,0 l/m 29,0 km/h NW 315 3,7 C 11,8 C 45,1 km/h
21.06.2018 15:40 27,0 C 17,8 C 29 % 39 % 1017,4 hPa 0,0 l/m 29,0 km/h NW 315 3,7 C 11,8 C 41,8 km/h
21.06.2018 15:35 27,2 C 18,1 C 28 % 41 % 1017,3 hPa 0,0 l/m 32,2 km/h NW 315 4,6 C 11,8 C 49,9 km/h
21.06.2018 15:30 27,3 C 18,2 C 28 % 40 % 1017,1 hPa 0,0 l/m 33,8 km/h NW 315 4,4 C 11,7 C 46,7 km/h
21.06.2018 15:25 27,5 C 18,2 C 30 % 41 % 1017,0 hPa 0,0 l/m 32,2 km/h W-NW 292 4,7 C 11,9 C 48,3 km/h
21.06.2018 15:20 27,6 C 18,0 C 30 % 43 % 1016,9 hPa 0,0 l/m 29,0 km/h W-NW 292 5,2 C 12,0 C 41,8 km/h
21.06.2018 15:15 27,6 C 18,3 C 31 % 41 % 1016,9 hPa 0,0 l/m 32,2 km/h W 270 4,8 C 12,0 C 43,5 km/h
21.06.2018 15:10 27,6 C 18,5 C 31 % 41 % 1016,9 hPa 0,0 l/m 35,4 km/h W-NW 292 5,0 C 12,0 C 53,1 km/h
21.06.2018 15:05 27,6 C 18,6 C 31 % 43 % 1016,7 hPa 0,0 l/m 33,8 km/h W-NW 292 5,8 C 12,3 C 53,1 km/h
21.06.2018 15:00 27,6 C 18,6 C 31 % 44 % 1016,8 hPa 0,0 l/m 30,6 km/h W-NW 292 6,1 C 12,7 C 41,8 km/h
21.06.2018 14:55 27,5 C 18,7 C 32 % 44 % 1016,7 hPa 0,0 l/m 32,2 km/h W-NW 292 6,2 C 12,6 C 43,5 km/h
21.06.2018 14:50 27,4 C 18,8 C 31 % 43 % 1016,5 hPa 0,0 l/m 33,8 km/h W-NW 292 6,0 C 12,6 C 51,5 km/h
21.06.2018 14:45 27,3 C 18,7 C 31 % 44 % 1016,4 hPa 0,0 l/m 27,4 km/h NW 315 6,2 C 13,3 C 46,7 km/h
21.06.2018 14:40 27,4 C 18,6 C 32 % 42 % 1016,6 hPa 0,0 l/m 33,8 km/h W-NW 292 5,4 C 12,3 C 51,5 km/h
21.06.2018 14:35 27,4 C 18,6 C 32 % 43 % 1016,5 hPa 0,0 l/m 32,2 km/h W-NW 292 5,8 C 12,5 C 46,7 km/h
21.06.2018 14:30 27,4 C 18,8 C 33 % 43 % 1016,4 hPa 0,0 l/m 33,8 km/h W 270 6,0 C 12,6 C 48,3 km/h
21.06.2018 14:25 27,4 C 18,6 C 33 % 45 % 1016,2 hPa 0,0 l/m 40,2 km/h W-NW 292 6,4 C 11,6 C 54,7 km/h
21.06.2018 14:20 27,4 C 18,9 C 32 % 47 % 1016,3 hPa 0,0 l/m 35,4 km/h W-NW 292 7,3 C 12,5 C 49,9 km/h
21.06.2018 14:15 27,4 C 18,9 C 34 % 45 % 1016,1 hPa 0,0 l/m 35,4 km/h W-NW 292 6,7 C 12,5 C 49,9 km/h
21.06.2018 14:10 27,4 C 18,9 C 33 % 46 % 1016,1 hPa 0,0 l/m 29,0 km/h W-NW 292 7,0 C 13,3 C 45,1 km/h
21.06.2018 14:05 27,5 C 18,7 C 33 % 45 % 1015,9 hPa 0,0 l/m 32,2 km/h NW 315 6,5 C 12,6 C 45,1 km/h
21.06.2018 14:00 27,7 C 19,0 C 34 % 49 % 1015,9 hPa 0,0 l/m 32,2 km/h W-NW 292 8,0 C 13,0 C 46,7 km/h
21.06.2018 13:55 27,7 C 18,9 C 34 % 48 % 1015,9 hPa 0,0 l/m 38,6 km/h W-NW 292 7,6 C 12,2 C 54,7 km/h
21.06.2018 13:50 27,7 C 19,0 C 34 % 47 % 1015,9 hPa 0,0 l/m 37,0 km/h W-NW 292 7,4 C 12,5 C 49,9 km/h
21.06.2018 13:45 27,7 C 18,8 C 35 % 45 % 1015,8 hPa 0,0 l/m 38,6 km/h W-NW 292 6,6 C 12,1 C 53,1 km/h
21.06.2018 13:40 27,6 C 19,1 C 36 % 49 % 1015,8 hPa 0,0 l/m 35,4 km/h W-NW 292 8,1 C 12,8 C 49,9 km/h
21.06.2018 13:35 27,5 C 19,1 C 37 % 51 % 1015,7 hPa 0,0 l/m 32,2 km/h W 270 8,7 C 13,2 C 48,3 km/h
21.06.2018 13:30 27,3 C 19,0 C 37 % 50 % 1015,8 hPa 0,0 l/m 29,0 km/h W-NW 292 8,3 C 13,4 C 43,5 km/h
21.06.2018 13:25 27,3 C 18,5 C 38 % 55 % 1015,7 hPa 0,0 l/m 33,8 km/h W-NW 292 9,3 C 12,1 C 48,3 km/h
21.06.2018 13:20 27,3 C 18,2 C 37 % 57 % 1015,7 hPa 0,0 l/m 38,6 km/h W-NW 292 9,5 C 11,2 C 53,1 km/h
21.06.2018 13:15 27,5 C 18,6 C 36 % 56 % 1015,6 hPa 0,0 l/m 33,8 km/h NW 315 9,6 C 12,3 C 45,1 km/h
21.06.2018 13:10 27,7 C 18,8 C 38 % 58 % 1015,6 hPa 0,0 l/m 37,0 km/h W 270 10,4 C 12,2 C 49,9 km/h
21.06.2018 13:05 27,6 C 18,9 C 38 % 58 % 1015,4 hPa 0,0 l/m 38,6 km/h W 270 10,5 C 12,2 C 53,1 km/h
21.06.2018 13:00 27,5 C 18,9 C 38 % 57 % 1015,4 hPa 0,0 l/m 33,8 km/h W 270 10,2 C 12,7 C 49,9 km/h
21.06.2018 12:55 27,4 C 18,9 C 39 % 58 % 1015,3 hPa 0,0 l/m 30,6 km/h W 270 10,5 C 13,1 C 46,7 km/h
21.06.2018 12:50 27,3 C 18,8 C 39 % 55 % 1015,3 hPa 0,0 l/m 35,4 km/h W 270 9,6 C 12,4 C 57,9 km/h
21.06.2018 12:45 27,2 C 18,6 C 40 % 59 % 1015,2 hPa 0,0 l/m 37,0 km/h W-NW 292 10,4 C 11,9 C 53,1 km/h
21.06.2018 12:40 27,3 C 18,2 C 40 % 62 % 1015,4 hPa 0,0 l/m 37,0 km/h W-NW 292 10,8 C 11,3 C 53,1 km/h
21.06.2018 12:35 27,4 C 18,6 C 40 % 61 % 1015,3 hPa 0,0 l/m 35,4 km/h W-NW 292 10,9 C 12,1 C 56,3 km/h
21.06.2018 12:30 27,3 C 18,9 C 41 % 61 % 1015,2 hPa 0,0 l/m 33,8 km/h W-NW 292 11,2 C 12,7 C 48,3 km/h
21.06.2018 12:25 27,2 C 18,7 C 42 % 64 % 1015,2 hPa 0,0 l/m 30,6 km/h W 270 11,7 C 12,8 C 46,7 km/h
21.06.2018 12:20 27,1 C 18,3 C 42 % 65 % 1015,1 hPa 0,0 l/m 32,2 km/h W 270 11,6 C 12,0 C 53,1 km/h
21.06.2018 12:15 27,2 C 17,9 C 42 % 64 % 1015,2 hPa 0,0 l/m 40,2 km/h W 270 11,0 C 10,6 C 51,5 km/h
21.06.2018 12:10 27,4 C 18,2 C 43 % 64 % 1015,2 hPa 0,0 l/m 40,2 km/h W-NW 292 11,3 C 11,0 C 56,3 km/h
21.06.2018 12:05 27,5 C 18,7 C 43 % 65 % 1015,0 hPa 0,0 l/m 38,6 km/h W 270 12,0 C 11,9 C 62,8 km/h
21.06.2018 12:00 27,4 C 19,1 C 44 % 68 % 1015,1 hPa 0,0 l/m 30,6 km/h W-NW 292 13,1 C 13,4 C 45,1 km/h
21.06.2018 11:55 27,3 C 19,1 C 45 % 69 % 1015,0 hPa 0,0 l/m 29,0 km/h W 270 13,3 C 13,6 C 43,5 km/h
21.06.2018 11:50 27,1 C 18,7 C 45 % 67 % 1015,0 hPa 0,0 l/m 32,2 km/h W-NW 292 12,4 C 12,6 C 53,1 km/h
21.06.2018 11:45 26,9 C 18,7 C 46 % 72 % 1015,0 hPa 0,0 l/m 22,5 km/h W-NW 292 13,5 C 14,0 C 32,2 km/h
21.06.2018 11:40 26,7 C 18,1 C 46 % 74 % 1015,0 hPa 0,0 l/m 22,5 km/h W-NW 292 13,4 C 13,3 C 35,4 km/h
21.06.2018 11:35 26,6 C 17,9 C 46 % 74 % 1015,2 hPa 0,0 l/m 24,1 km/h W 270 13,2 C 12,7 C 33,8 km/h
21.06.2018 11:30 26,4 C 17,8 C 46 % 73 % 1015,1 hPa 0,0 l/m 24,1 km/h W 270 12,9 C 12,6 C 33,8 km/h
21.06.2018 11:25 26,3 C 17,8 C 47 % 73 % 1014,9 hPa 0,0 l/m 24,1 km/h W 270 12,9 C 12,6 C 40,2 km/h
21.06.2018 11:20 26,1 C 17,8 C 47 % 73 % 1015,1 hPa 0,0 l/m 24,1 km/h W 270 12,9 C 12,6 C 37,0 km/h
21.06.2018 11:15 25,8 C 17,4 C 48 % 73 % 1015,1 hPa 0,0 l/m 25,7 km/h W 270 12,5 C 11,7 C 41,8 km/h
21.06.2018 11:10 25,6 C 17,6 C 48 % 73 % 1015,1 hPa 0,0 l/m 22,5 km/h W-NW 292 12,7 C 12,6 C 37,0 km/h
21.06.2018 11:05 25,4 C 17,5 C 48 % 72 % 1015,0 hPa 0,0 l/m 29,0 km/h W-NW 292 12,4 C 11,3 C 40,2 km/h
21.06.2018 11:00 25,1 C 17,4 C 49 % 73 % 1015,0 hPa 0,0 l/m 25,7 km/h W-NW 292 12,5 C 11,7 C 35,4 km/h
21.06.2018 10:55 24,8 C 17,2 C 50 % 73 % 1015,0 hPa 0,0 l/m 27,4 km/h W-NW 292 12,3 C 11,2 C 45,1 km/h
21.06.2018 10:50 24,8 C 17,1 C 50 % 74 % 1015,0 hPa 0,0 l/m 35,4 km/h W-NW 292 12,4 C 9,9 C 51,5 km/h
21.06.2018 10:45 24,9 C 17,3 C 50 % 76 % 1015,1 hPa 0,0 l/m 27,4 km/h W-NW 292 13,0 C 11,3 C 41,8 km/h
21.06.2018 10:40 25,0 C 17,3 C 50 % 77 % 1014,9 hPa 0,0 l/m 27,4 km/h W-NW 292 13,2 C 11,3 C 43,5 km/h
21.06.2018 10:35 25,1 C 17,3 C 50 % 78 % 1014,8 hPa 0,0 l/m 25,7 km/h W 270 13,4 C 11,6 C 53,1 km/h
21.06.2018 10:30 25,3 C 17,4 C 50 % 78 % 1014,7 hPa 0,0 l/m 33,8 km/h W-NW 292 13,5 C 10,6 C 53,1 km/h
21.06.2018 10:25 25,4 C 17,5 C 50 % 78 % 1014,7 hPa 0,0 l/m 24,1 km/h W-NW 292 13,6 C 12,2 C 33,8 km/h
21.06.2018 10:20 25,6 C 17,8 C 49 % 78 % 1014,7 hPa 0,0 l/m 29,0 km/h W-NW 292 13,9 C 11,8 C 43,5 km/h
21.06.2018 10:15 25,8 C 18,1 C 49 % 77 % 1014,5 hPa 0,0 l/m 29,0 km/h W-NW 292 14,0 C 12,2 C 43,5 km/h
21.06.2018 10:10 26,1 C 18,2 C 49 % 77 % 1014,4 hPa 0,0 l/m 24,1 km/h W 270 14,1 C 13,1 C 38,6 km/h
21.06.2018 10:05 26,2 C 18,2 C 48 % 77 % 1014,3 hPa 0,0 l/m 30,6 km/h W 270 14,1 C 12,1 C 43,5 km/h
21.06.2018 10:00 26,3 C 18,4 C 48 % 77 % 1014,1 hPa 0,0 l/m 20,9 km/h W 270 14,3 C 14,0 C 33,8 km/h
21.06.2018 09:55 26,5 C 18,3 C 48 % 77 % 1014,1 hPa 0,0 l/m 30,6 km/h W 270 14,2 C 12,2 C 48,3 km/h
21.06.2018 09:50 26,7 C 18,4 C 47 % 77 % 1014,1 hPa 0,0 l/m 29,0 km/h W-NW 292 14,3 C 12,6 C 41,8 km/h
21.06.2018 09:45 27,1 C 18,6 C 47 % 77 % 1014,1 hPa 0,0 l/m 25,7 km/h W-NW 292 14,5 C 13,4 C 45,1 km/h
21.06.2018 09:40 27,5 C 18,9 C 46 % 75 % 1014,0 hPa 0,0 l/m 27,4 km/h W-NW 292 14,4 C 13,5 C 45,1 km/h
21.06.2018 09:35 27,8 C 19,3 C 45 % 74 % 1013,8 hPa 0,0 l/m 22,5 km/h W-NW 292 14,5 C 14,8 C 29,0 km/h
21.06.2018 09:30 28,2 C 19,3 C 44 % 74 % 1013,6 hPa 0,0 l/m 27,4 km/h W 270 14,5 C 14,1 C 38,6 km/h
21.06.2018 09:25 28,7 C 19,4 C 43 % 73 % 1013,6 hPa 0,0 l/m 20,9 km/h W 270 14,4 C 15,3 C 32,2 km/h
21.06.2018 09:20 29,1 C 19,6 C 43 % 73 % 1013,5 hPa 0,0 l/m 24,1 km/h W 270 14,6 C 15,0 C 32,2 km/h
21.06.2018 09:15 29,6 C 19,8 C 42 % 73 % 1013,5 hPa 0,0 l/m 20,9 km/h W 270 14,8 C 15,8 C 32,2 km/h
21.06.2018 09:10 30,0 C 20,0 C 41 % 71 % 1013,5 hPa 0,0 l/m 22,5 km/h W 270 14,6 C 15,8 C 33,8 km/h
21.06.2018 09:05 30,3 C 20,1 C 41 % 72 % 1013,5 hPa 0,0 l/m 22,5 km/h W 270 14,9 C 15,9 C 37,0 km/h
21.06.2018 09:00 30,6 C 20,1 C 41 % 70 % 1013,5 hPa 0,0 l/m 27,4 km/h W-NW 292 14,5 C 15,2 C 40,2 km/h
21.06.2018 08:55 30,8 C 20,1 C 40 % 71 % 1013,2 hPa 0,0 l/m 30,6 km/h W-SW 247 14,7 C 14,8 C 41,8 km/h
21.06.2018 08:50 30,9 C 20,2 C 41 % 71 % 1013,3 hPa 0,0 l/m 27,4 km/h W-SW 247 14,8 C 15,3 C 37,0 km/h
21.06.2018 08:45 30,9 C 20,2 C 41 % 73 % 1013,2 hPa 0,0 l/m 19,3 km/h W-SW 247 15,2 C 16,6 C 29,0 km/h
21.06.2018 08:40 30,7 C 20,1 C 41 % 73 % 1013,4 hPa 0,0 l/m 20,9 km/h W 270 15,1 C 16,2 C 27,4 km/h
21.06.2018 08:35 30,7 C 19,9 C 41 % 73 % 1013,2 hPa 0,0 l/m 22,5 km/h W 270 14,9 C 15,6 C 29,0 km/h
21.06.2018 08:30 30,8 C 19,9 C 41 % 73 % 1013,1 hPa 0,0 l/m 20,9 km/h W-SW 247 14,9 C 15,9 C 29,0 km/h
21.06.2018 08:25 30,8 C 20,0 C 41 % 72 % 1013,0 hPa 0,0 l/m 20,9 km/h W-SW 247 14,8 C 16,0 C 29,0 km/h
21.06.2018 08:20 30,8 C 20,2 C 41 % 71 % 1013,1 hPa 0,0 l/m 17,7 km/h W-SW 247 14,8 C 16,9 C 32,2 km/h
21.06.2018 08:15 30,7 C 19,9 C 41 % 73 % 1013,1 hPa 0,0 l/m 22,5 km/h W-SW 247 14,9 C 15,6 C 29,0 km/h
21.06.2018 08:10 30,4 C 19,8 C 42 % 73 % 1013,2 hPa 0,0 l/m 22,5 km/h W-SW 247 14,8 C 15,5 C 32,2 km/h
21.06.2018 08:05 30,4 C 19,7 C 42 % 73 % 1013,2 hPa 0,0 l/m 19,3 km/h W-SW 247 14,7 C 16,0 C 24,1 km/h
21.06.2018 08:00 30,3 C 19,7 C 42 % 73 % 1013,2 hPa 0,0 l/m 17,7 km/h W-SW 247 14,7 C 16,3 C 25,7 km/h
21.06.2018 07:55 30,2 C 19,6 C 43 % 75 % 1013,3 hPa 0,0 l/m 17,7 km/h W-SW 247 15,0 C 16,1 C 25,7 km/h
21.06.2018 07:50 30,0 C 19,5 C 43 % 75 % 1013,3 hPa 0,0 l/m 16,1 km/h W-SW 247 14,9 C 16,4 C 22,5 km/h
21.06.2018 07:45 30,1 C 19,4 C 43 % 75 % 1013,5 hPa 0,0 l/m 12,9 km/h W-SW 247 14,8 C 17,1 C 19,3 km/h
21.06.2018 07:40 30,2 C 19,4 C 43 % 76 % 1013,4 hPa 0,0 l/m 16,1 km/h W-SW 247 15,1 C 16,3 C 22,5 km/h
21.06.2018 07:35 30,2 C 19,5 C 43 % 76 % 1013,6 hPa 0,0 l/m 16,1 km/h W-SW 247 15,2 C 16,4 C 27,4 km/h
21.06.2018 07:30 30,0 C 19,5 C 43 % 76 % 1013,6 hPa 0,0 l/m 16,1 km/h W-SW 247 15,2 C 16,4 C 20,9 km/h
21.06.2018 07:25 29,8 C 19,3 C 44 % 76 % 1013,6 hPa 0,0 l/m 14,5 km/h W-SW 247 15,0 C 16,5 C 24,1 km/h
21.06.2018 07:20 29,5 C 19,1 C 45 % 77 % 1013,8 hPa 0,0 l/m 16,1 km/h W 270 15,0 C 15,9 C 24,1 km/h
21.06.2018 07:15 29,2 C 18,9 C 45 % 79 % 1013,9 hPa 0,0 l/m 14,5 km/h W-SW 247 15,2 C 16,0 C 17,7 km/h
21.06.2018 07:10 28,8 C 18,6 C 46 % 80 % 1013,8 hPa 0,0 l/m 9,7 km/h W-SW 247 15,1 C 17,2 C 16,1 km/h
21.06.2018 07:05 28,5 C 18,3 C 46 % 81 % 1013,9 hPa 0,0 l/m 8,0 km/h W-SW 247 15,0 C 17,6 C 14,5 km/h
21.06.2018 07:00 28,1 C 17,9 C 47 % 81 % 1013,8 hPa 0,0 l/m 11,3 km/h SW 225 14,6 C 15,8 C 17,7 km/h
21.06.2018 06:55 27,8 C 17,8 C 47 % 82 % 1014,0 hPa 0,0 l/m 9,7 km/h SW 225 14,7 C 16,3 C 16,1 km/h
21.06.2018 06:50 27,6 C 17,7 C 47 % 82 % 1013,8 hPa 0,0 l/m 9,7 km/h SW 225 14,6 C 16,2 C 16,1 km/h
21.06.2018 06:45 27,4 C 17,6 C 47 % 82 % 1013,8 hPa 0,0 l/m 8,0 km/h SW 225 14,5 C 16,8 C 14,5 km/h
21.06.2018 06:40 27,5 C 17,5 C 47 % 82 % 1013,8 hPa 0,0 l/m 9,7 km/h SW 225 14,4 C 16,0 C 17,7 km/h
21.06.2018 06:35 27,4 C 17,5 C 47 % 82 % 1013,8 hPa 0,0 l/m 9,7 km/h SW 225 14,4 C 16,0 C 16,1 km/h
21.06.2018 06:30 27,6 C 17,3 C 47 % 82 % 1013,8 hPa 0,0 l/m 12,9 km/h SW 225 14,2 C 14,6 C 17,7 km/h
21.06.2018 06:25 27,8 C 17,3 C 46 % 82 % 1014,0 hPa 0,0 l/m 14,5 km/h SW 225 14,2 C 14,1 C 17,7 km/h
21.06.2018 06:20 28,2 C 17,3 C 46 % 82 % 1013,9 hPa 0,0 l/m 14,5 km/h SW 225 14,2 C 14,1 C 19,3 km/h
21.06.2018 06:15 28,5 C 17,3 C 45 % 82 % 1014,0 hPa 0,0 l/m 14,5 km/h SW 225 14,2 C 14,1 C 20,9 km/h
21.06.2018 06:10 29,1 C 17,3 C 44 % 82 % 1014,0 hPa 0,0 l/m 14,5 km/h SW 225 14,2 C 14,1 C 19,3 km/h
21.06.2018 06:05 29,6 C 17,4 C 44 % 82 % 1014,0 hPa 0,0 l/m 12,9 km/h SW 225 14,3 C 14,7 C 19,3 km/h
21.06.2018 06:00 29,5 C 17,5 C 44 % 81 % 1013,8 hPa 0,0 l/m 12,9 km/h SW 225 14,2 C 14,9 C 19,3 km/h
21.06.2018 05:55 28,8 C 17,4 C 45 % 82 % 1013,9 hPa 0,0 l/m 14,5 km/h W-SW 247 14,3 C 14,2 C 19,3 km/h
21.06.2018 05:50 28,3 C 17,3 C 46 % 82 % 1013,6 hPa 0,0 l/m 16,1 km/h SW 225 14,2 C 13,7 C 22,5 km/h
21.06.2018 05:45 28,0 C 17,2 C 47 % 82 % 1013,6 hPa 0,0 l/m 14,5 km/h SW 225 14,1 C 14,0 C 20,9 km/h
21.06.2018 05:40 27,8 C 17,1 C 47 % 82 % 1013,7 hPa 0,0 l/m 16,1 km/h SW 225 14,0 C 13,4 C 20,9 km/h
21.06.2018 05:35 27,4 C 17,1 C 48 % 83 % 1013,9 hPa 0,0 l/m 14,5 km/h SW 225 14,2 C 13,9 C 19,3 km/h
21.06.2018 05:30 26,9 C 17,0 C 50 % 83 % 1013,7 hPa 0,0 l/m 16,1 km/h SW 225 14,1 C 13,3 C 20,9 km/h
21.06.2018 05:25 26,2 C 17,0 C 51 % 83 % 1013,7 hPa 0,0 l/m 16,1 km/h SW 225 14,1 C 13,3 C 22,5 km/h
21.06.2018 05:20 25,4 C 16,9 C 53 % 83 % 1014,0 hPa 0,0 l/m 17,7 km/h W-SW 247 14,0 C 12,8 C 22,5 km/h
21.06.2018 05:15 24,6 C 16,9 C 55 % 83 % 1013,8 hPa 0,0 l/m 16,1 km/h W-SW 247 14,0 C 13,2 C 20,9 km/h
21.06.2018 05:10 24,1 C 16,8 C 55 % 84 % 1013,9 hPa 0,0 l/m 16,1 km/h W-SW 247 14,1 C 13,1 C 22,5 km/h
21.06.2018 05:05 24,1 C 16,7 C 55 % 84 % 1014,0 hPa 0,0 l/m 16,1 km/h W-SW 247 14,0 C 12,9 C 20,9 km/h
21.06.2018 05:00 24,2 C 16,6 C 55 % 84 % 1014,0 hPa 0,0 l/m 16,1 km/h W-SW 247 13,9 C 12,8 C 19,3 km/h
21.06.2018 04:55 24,2 C 16,4 C 55 % 85 % 1014,1 hPa 0,0 l/m 14,5 km/h SW 225 13,9 C 13,0 C 19,3 km/h
21.06.2018 04:50 24,0 C 16,3 C 56 % 85 % 1014,1 hPa 0,0 l/m 12,9 km/h W-SW 247 13,8 C 13,4 C 16,1 km/h
21.06.2018 04:45 23,7 C 16,3 C 57 % 85 % 1013,9 hPa 0,0 l/m 11,3 km/h W-SW 247 13,8 C 14,0 C 14,5 km/h
21.06.2018 04:40 23,5 C 16,3 C 57 % 84 % 1014,1 hPa 0,0 l/m 11,3 km/h W-SW 247 13,6 C 14,0 C 14,5 km/h
21.06.2018 04:35 23,3 C 16,4 C 57 % 84 % 1014,1 hPa 0,0 l/m 11,3 km/h W-SW 247 13,7 C 14,1 C 14,5 km/h
21.06.2018 04:30 23,2 C 16,6 C 58 % 84 % 1014,2 hPa 0,0 l/m 8,0 km/h SW 225 13,9 C 15,8 C 12,9 km/h
21.06.2018 04:25 23,2 C 16,6 C 58 % 84 % 1014,0 hPa 0,0 l/m 9,7 km/h SW 225 13,9 C 15,0 C 14,5 km/h
21.06.2018 04:20 23,2 C 16,7 C 58 % 84 % 1014,1 hPa 0,0 l/m 9,7 km/h SW 225 14,0 C 15,1 C 16,1 km/h
21.06.2018 04:15 23,2 C 16,7 C 58 % 84 % 1014,0 hPa 0,0 l/m 11,3 km/h SW 225 14,0 C 14,5 C 16,1 km/h
21.06.2018 04:10 23,2 C 16,6 C 58 % 84 % 1014,2 hPa 0,0 l/m 11,3 km/h SW 225 13,9 C 14,4 C 14,5 km/h
21.06.2018 04:05 23,2 C 16,5 C 58 % 84 % 1014,3 hPa 0,0 l/m 9,7 km/h S-SW 202 13,8 C 14,9 C 14,5 km/h
21.06.2018 04:00 23,3 C 16,6 C 58 % 84 % 1014,2 hPa 0,0 l/m 8,0 km/h S-SW 202 13,9 C 15,8 C 12,9 km/h
21.06.2018 03:55 23,3 C 16,7 C 58 % 84 % 1014,4 hPa 0,0 l/m 8,0 km/h S-SW 202 14,0 C 15,9 C 12,9 km/h
21.06.2018 03:50 23,3 C 16,7 C 58 % 84 % 1014,5 hPa 0,0 l/m 8,0 km/h SW 225 14,0 C 15,9 C 11,3 km/h
21.06.2018 03:45 23,3 C 16,8 C 58 % 84 % 1014,6 hPa 0,0 l/m 8,0 km/h SW 225 14,1 C 16,0 C 11,3 km/h
21.06.2018 03:40 23,3 C 16,9 C 58 % 84 % 1014,6 hPa 0,0 l/m 8,0 km/h SW 225 14,2 C 16,1 C 9,7 km/h
21.06.2018 03:35 23,4 C 16,9 C 58 % 84 % 1014,7 hPa 0,0 l/m 6,4 km/h SW 225 14,2 C 16,9 C 8,0 km/h
21.06.2018 03:30 23,4 C 16,9 C 58 % 84 % 1014,7 hPa 0,0 l/m 4,8 km/h SW 225 14,2 C 16,9 C 6,4 km/h
21.06.2018 03:25 23,4 C 16,9 C 57 % 85 % 1014,8 hPa 0,0 l/m 6,4 km/h SW 225 14,4 C 16,9 C 8,0 km/h
21.06.2018 03:20 23,5 C 16,8 C 57 % 85 % 1014,8 hPa 0,0 l/m 6,4 km/h SW 225 14,3 C 16,8 C 8,0 km/h
21.06.2018 03:15 23,6 C 16,7 C 57 % 85 % 1014,9 hPa 0,0 l/m 4,8 km/h SW 225 14,2 C 16,7 C 8,0 km/h
21.06.2018 03:10 23,6 C 16,7 C 57 % 85 % 1014,9 hPa 0,0 l/m 1,6 km/h W-SW 247 14,2 C 16,7 C 3,2 km/h
21.06.2018 03:05 23,6 C 16,7 C 57 % 85 % 1015,0 hPa 0,0 l/m 3,2 km/h W-SW 247 14,2 C 16,7 C 4,8 km/h
21.06.2018 03:00 23,7 C 16,7 C 57 % 86 % 1015,0 hPa 0,0 l/m 3,2 km/h W-SW 247 14,3 C 16,7 C 4,8 km/h
21.06.2018 02:55 23,7 C 16,7 C 57 % 86 % 1015,0 hPa 0,0 l/m 3,2 km/h W-SW 247 14,3 C 16,7 C 4,8 km/h
21.06.2018 02:50 23,7 C 16,7 C 57 % 86 % 1015,1 hPa 0,0 l/m 3,2 km/h W-NW 292 14,3 C 16,7 C 4,8 km/h
21.06.2018 02:45 23,7 C 16,7 C 57 % 86 % 1015,1 hPa 0,0 l/m 1,6 km/h W-NW 292 14,3 C 16,7 C 3,2 km/h
21.06.2018 02:40 23,8 C 16,7 C 56 % 86 % 1015,1 hPa 0,0 l/m 1,6 km/h W-NW 292 14,3 C 16,7 C 4,8 km/h
21.06.2018 02:35 23,8 C 16,7 C 56 % 86 % 1015,2 hPa 0,0 l/m 3,2 km/h W-NW 292 14,3 C 16,7 C 4,8 km/h
21.06.2018 02:30 23,8 C 16,6 C 56 % 86 % 1015,2 hPa 0,0 l/m 4,8 km/h W 270 14,2 C 16,6 C 6,4 km/h
21.06.2018 02:25 23,9 C 16,6 C 56 % 87 % 1015,2 hPa 0,0 l/m 4,8 km/h W 270 14,4 C 16,6 C 6,4 km/h
21.06.2018 02:20 23,9 C 16,6 C 56 % 86 % 1015,1 hPa 0,0 l/m 4,8 km/h W-NW 292 14,2 C 16,6 C 6,4 km/h
21.06.2018 02:15 24,1 C 16,7 C 55 % 86 % 1015,1 hPa 0,0 l/m 4,8 km/h W-NW 292 14,3 C 16,7 C 6,4 km/h
21.06.2018 02:10 24,1 C 16,7 C 55 % 85 % 1015,1 hPa 0,0 l/m 6,4 km/h W-NW 292 14,2 C 16,7 C 9,7 km/h
21.06.2018 02:05 24,2 C 16,9 C 55 % 84 % 1015,3 hPa 0,0 l/m 4,8 km/h W 270 14,2 C 16,9 C 6,4 km/h
21.06.2018 02:00 24,3 C 17,2 C 55 % 83 % 1015,3 hPa 0,0 l/m 4,8 km/h W 270 14,3 C 17,2 C 6,4 km/h
21.06.2018 01:55 24,3 C 17,6 C 55 % 81 % 1015,3 hPa 0,0 l/m 4,8 km/h W 270 14,3 C 17,6 C 6,4 km/h
21.06.2018 01:50 24,4 C 17,9 C 55 % 80 % 1015,4 hPa 0,0 l/m 4,8 km/h W-SW 247 14,4 C 17,9 C 6,4 km/h
21.06.2018 01:45 24,5 C 18,3 C 54 % 79 % 1015,3 hPa 0,0 l/m 3,2 km/h SW 225 14,6 C 18,3 C 6,4 km/h
21.06.2018 01:40 24,6 C 18,4 C 54 % 79 % 1015,3 hPa 0,0 l/m 3,2 km/h SW 225 14,7 C 18,4 C 6,4 km/h
21.06.2018 01:35 24,6 C 18,3 C 54 % 79 % 1015,2 hPa 0,0 l/m 6,4 km/h SW 225 14,6 C 18,3 C 8,0 km/h
21.06.2018 01:30 24,7 C 18,1 C 54 % 80 % 1015,3 hPa 0,0 l/m 4,8 km/h W-SW 247 14,6 C 18,1 C 8,0 km/h
21.06.2018 01:25 24,7 C 18,2 C 54 % 79 % 1015,5 hPa 0,0 l/m 3,2 km/h W-SW 247 14,5 C 18,2 C 6,4 km/h
21.06.2018 01:20 24,8 C 18,3 C 53 % 79 % 1015,4 hPa 0,0 l/m 3,2 km/h W-SW 247 14,6 C 18,3 C 4,8 km/h
21.06.2018 01:15 24,9 C 18,3 C 53 % 79 % 1015,5 hPa 0,0 l/m 3,2 km/h W-SW 247 14,6 C 18,3 C 4,8 km/h
21.06.2018 01:10 24,9 C 18,4 C 53 % 78 % 1015,5 hPa 0,0 l/m 6,4 km/h W-SW 247 14,5 C 18,4 C 8,0 km/h
21.06.2018 01:05 25,1 C 18,4 C 53 % 79 % 1015,5 hPa 0,0 l/m 8,0 km/h SW 225 14,7 C 17,7 C 8,0 km/h
21.06.2018 01:00 25,2 C 18,1 C 53 % 80 % 1015,5 hPa 0,0 l/m 4,8 km/h SW 225 14,6 C 18,1 C 8,0 km/h
21.06.2018 00:55 25,2 C 18,4 C 52 % 78 % 1015,5 hPa 0,0 l/m 3,2 km/h SW 225 14,5 C 18,4 C 4,8 km/h
21.06.2018 00:50 25,3 C 18,6 C 52 % 78 % 1015,6 hPa 0,0 l/m 3,2 km/h SW 225 14,7 C 18,6 C 6,4 km/h
21.06.2018 00:45 25,4 C 18,7 C 52 % 77 % 1015,6 hPa 0,0 l/m 4,8 km/h SW 225 14,6 C 18,7 C 6,4 km/h
21.06.2018 00:40 25,5 C 18,7 C 52 % 77 % 1015,6 hPa 0,0 l/m 4,8 km/h SW 225 14,6 C 18,7 C 6,4 km/h
21.06.2018 00:35 25,6 C 18,8 C 51 % 77 % 1015,6 hPa 0,0 l/m 4,8 km/h SW 225 14,7 C 18,8 C 6,4 km/h
21.06.2018 00:30 25,7 C 18,8 C 51 % 77 % 1015,7 hPa 0,0 l/m 3,2 km/h W-SW 247 14,7 C 18,8 C 6,4 km/h
21.06.2018 00:25 25,8 C 19,1 C 51 % 76 % 1015,8 hPa 0,0 l/m 3,2 km/h W-SW 247 14,8 C 19,1 C 4,8 km/h
21.06.2018 00:20 25,9 C 19,4 C 50 % 75 % 1015,9 hPa 0,0 l/m 3,2 km/h W-SW 247 14,8 C 19,4 C 8,0 km/h
21.06.2018 00:15 26,0 C 19,2 C 50 % 75 % 1015,8 hPa 0,0 l/m 6,4 km/h W-SW 247 14,7 C 19,2 C 8,0 km/h
21.06.2018 00:10 26,1 C 18,9 C 50 % 77 % 1016,0 hPa 0,0 l/m 6,4 km/h W 270 14,8 C 18,9 C 8,0 km/h
21.06.2018 00:05 26,2 C 19,1 C 50 % 76 % 1016,0 hPa 0,0 l/m 4,8 km/h W-SW 247 14,8 C 19,1 C 6,4 km/h
21.06.2018 00:00 26,3 C 19,3 C 49 % 76 % 1015,9 hPa 0,0 l/m 3,2 km/h W-SW 247 15,0 C 19,3 C 4,8 km/h
20.06.2018 23:55 26,4 C 19,3 C 49 % 76 % 1015,8 hPa 0,0 l/m 3,2 km/h W-SW 247 15,0 C 19,3 C 4,8 km/h
20.06.2018 23:50 26,5 C 19,4 C 49 % 75 % 1015,8 hPa 0,0 l/m 4,8 km/h W-SW 247 14,8 C 19,4 C 6,4 km/h
20.06.2018 23:45 26,7 C 19,6 C 49 % 74 % 1015,9 hPa 0,0 l/m 4,8 km/h W-SW 247 14,8 C 19,6 C 6,4 km/h
20.06.2018 23:40 26,8 C 19,8 C 48 % 73 % 1016,0 hPa 0,0 l/m 3,2 km/h W-SW 247 14,8 C 19,8 C 4,8 km/h
20.06.2018 23:35 26,9 C 20,2 C 48 % 72 % 1015,9 hPa 0,0 l/m 3,2 km/h W-SW 247 15,0 C 20,2 C 4,8 km/h
20.06.2018 23:30 27,0 C 20,3 C 48 % 72 % 1015,8 hPa 0,0 l/m 4,8 km/h W-SW 247 15,1 C 20,3 C 6,4 km/h
20.06.2018 23:25 27,1 C 20,1 C 47 % 73 % 1015,8 hPa 0,0 l/m 3,2 km/h W-SW 247 15,1 C 20,1 C 4,8 km/h
20.06.2018 23:20 27,3 C 20,1 C 47 % 73 % 1015,9 hPa 0,0 l/m 4,8 km/h W-SW 247 15,1 C 20,1 C 4,8 km/h
20.06.2018 23:15 27,4 C 20,1 C 47 % 73 % 1016,1 hPa 0,0 l/m 4,8 km/h W-SW 247 15,1 C 20,1 C 6,4 km/h
20.06.2018 23:10 27,5 C 20,3 C 46 % 72 % 1016,1 hPa 0,0 l/m 4,8 km/h SW 225 15,1 C 20,3 C 6,4 km/h
20.06.2018 23:05 27,7 C 20,4 C 46 % 71 % 1016,2 hPa 0,0 l/m 1,6 km/h SW 225 15,0 C 20,4 C 3,2 km/h
20.06.2018 23:00 27,8 C 20,6 C 46 % 70 % 1016,2 hPa 0,0 l/m 3,2 km/h SW 225 14,9 C 20,6 C 3,2 km/h
20.06.2018 22:55 28,0 C 20,7 C 45 % 70 % 1016,3 hPa 0,0 l/m 3,2 km/h SW 225 15,0 C 20,7 C 4,8 km/h
20.06.2018 22:50 28,1 C 20,8 C 45 % 70 % 1016,3 hPa 0,0 l/m 4,8 km/h SW 225 15,1 C 20,8 C 4,8 km/h
20.06.2018 22:45 28,3 C 20,9 C 45 % 70 % 1016,3 hPa 0,0 l/m 1,6 km/h SW 225 15,2 C 20,9 C 4,8 km/h
20.06.2018 22:40 28,4 C 21,0 C 44 % 70 % 1016,5 hPa 0,0 l/m 0,0 km/h SW 225 15,3 C 21,0 C 3,2 km/h
20.06.2018 22:35 28,6 C 20,8 C 44 % 69 % 1016,4 hPa 0,0 l/m 0,0 km/h N 0 14,9 C 20,8 C 0,0 km/h
20.06.2018 22:30 28,8 C 20,9 C 43 % 71 % 1016,4 hPa 0,0 l/m 0,0 km/h N 0 15,4 C 20,9 C 0,0 km/h
20.06.2018 22:25 29,0 C 21,1 C 43 % 70 % 1016,4 hPa 0,0 l/m 0,0 km/h N 0 15,4 C 21,1 C 0,0 km/h
20.06.2018 22:20 29,2 C 21,3 C 42 % 70 % 1016,5 hPa 0,0 l/m 0,0 km/h N 0 15,6 C 21,3 C 0,0 km/h
20.06.2018 22:15 29,4 C 21,6 C 42 % 69 % 1016,5 hPa 0,0 l/m 0,0 km/h N 0 15,7 C 21,6 C 0,0 km/h
20.06.2018 22:10 29,6 C 21,8 C 41 % 68 % 1016,5 hPa 0,0 l/m 0,0 km/h SW 225 15,6 C 21,8 C 1,6 km/h
20.06.2018 22:05 29,9 C 21,9 C 41 % 66 % 1016,6 hPa 0,0 l/m 1,6 km/h SW 225 15,3 C 21,9 C 3,2 km/h
20.06.2018 22:00 30,1 C 21,8 C 40 % 65 % 1016,6 hPa 0,0 l/m 3,2 km/h SW 225 14,9 C 21,8 C 4,8 km/h
20.06.2018 21:55 30,3 C 22,1 C 40 % 65 % 1016,6 hPa 0,0 l/m 3,2 km/h SW 225 15,2 C 22,1 C 4,8 km/h
20.06.2018 21:50 30,6 C 22,3 C 39 % 65 % 1016,7 hPa 0,0 l/m 3,2 km/h SW 225 15,4 C 22,3 C 4,8 km/h
20.06.2018 21:45 30,9 C 22,5 C 38 % 64 % 1016,7 hPa 0,0 l/m 3,2 km/h SW 225 15,3 C 22,5 C 4,8 km/h
20.06.2018 21:40 31,2 C 22,8 C 38 % 64 % 1016,7 hPa 0,0 l/m 4,8 km/h SW 225 15,6 C 22,8 C 6,4 km/h
20.06.2018 21:35 31,5 C 22,9 C 37 % 62 % 1016,7 hPa 0,0 l/m 4,8 km/h SW 225 15,2 C 22,9 C 8,0 km/h
20.06.2018 21:30 31,8 C 23,2 C 36 % 62 % 1016,5 hPa 0,0 l/m 4,8 km/h SW 225 15,5 C 23,2 C 6,4 km/h
20.06.2018 21:25 32,1 C 23,7 C 36 % 61 % 1016,5 hPa 0,0 l/m 4,8 km/h SW 225 15,7 C 23,7 C 6,4 km/h
20.06.2018 21:20 32,4 C 24,1 C 35 % 60 % 1016,5 hPa 0,0 l/m 3,2 km/h SW 225 15,8 C 24,1 C 6,4 km/h
20.06.2018 21:15 32,7 C 24,7 C 35 % 58 % 1016,5 hPa 0,0 l/m 4,8 km/h SW 225 15,9 C 24,7 C 6,4 km/h
20.06.2018 21:10 33,1 C 24,9 C 34 % 54 % 1016,5 hPa 0,0 l/m 4,8 km/h W-SW 247 14,9 C 24,9 C 6,4 km/h
20.06.2018 21:05 33,4 C 24,9 C 34 % 54 % 1016,6 hPa 0,0 l/m 3,2 km/h W-SW 247 14,9 C 24,9 C 4,8 km/h
20.06.2018 21:00 33,8 C 24,9 C 33 % 54 % 1016,7 hPa 0,0 l/m 3,2 km/h W-SW 247 14,9 C 24,9 C 4,8 km/h
20.06.2018 20:55 34,2 C 25,0 C 32 % 53 % 1016,5 hPa 0,0 l/m 3,2 km/h W-SW 247 14,7 C 25,0 C 4,8 km/h
20.06.2018 20:50 34,6 C 25,1 C 32 % 53 % 1016,4 hPa 0,0 l/m 3,2 km/h W 270 14,8 C 25,1 C 4,8 km/h
20.06.2018 20:45 35,0 C 25,2 C 31 % 52 % 1016,5 hPa 0,0 l/m 3,2 km/h W 270 14,6 C 25,2 C 4,8 km/h
20.06.2018 20:40 35,4 C 25,2 C 31 % 52 % 1016,6 hPa 0,0 l/m 3,2 km/h W 270 14,6 C 25,2 C 4,8 km/h
20.06.2018 20:35 35,8 C 25,4 C 30 % 52 % 1016,5 hPa 0,0 l/m 4,8 km/h W 270 14,8 C 25,4 C 4,8 km/h
20.06.2018 20:30 36,2 C 25,5 C 30 % 52 % 1016,6 hPa 0,0 l/m 4,8 km/h W 270 14,9 C 25,5 C 6,4 km/h
20.06.2018 20:25 36,4 C 25,6 C 30 % 52 % 1016,7 hPa 0,0 l/m 4,8 km/h W 270 15,0 C 25,6 C 6,4 km/h
20.06.2018 20:20 36,7 C 25,8 C 29 % 52 % 1016,6 hPa 0,0 l/m 4,8 km/h W 270 15,2 C 25,8 C 6,4 km/h
20.06.2018 20:15 37,0 C 25,9 C 29 % 51 % 1016,7 hPa 0,0 l/m 4,8 km/h W 270 15,0 C 25,9 C 6,4 km/h
20.06.2018 20:10 37,3 C 26,0 C 29 % 50 % 1016,7 hPa 0,0 l/m 6,4 km/h W 270 14,8 C 26,0 C 8,0 km/h
20.06.2018 20:05 37,5 C 26,0 C 28 % 50 % 1016,7 hPa 0,0 l/m 6,4 km/h W 270 14,8 C 26,0 C 8,0 km/h
20.06.2018 20:00 37,8 C 26,2 C 28 % 50 % 1016,7 hPa 0,0 l/m 6,4 km/h W 270 14,9 C 26,2 C 8,0 km/h
20.06.2018 19:55 38,1 C 26,3 C 28 % 50 % 1016,7 hPa 0,0 l/m 6,4 km/h W 270 15,0 C 26,3 C 11,3 km/h
20.06.2018 19:50 38,3 C 26,4 C 28 % 49 % 1016,6 hPa 0,0 l/m 8,0 km/h W 270 14,8 C 26,1 C 12,9 km/h
20.06.2018 19:45 38,5 C 26,4 C 27 % 49 % 1016,7 hPa 0,0 l/m 6,4 km/h W 270 14,8 C 26,4 C 8,0 km/h
20.06.2018 19:40 38,7 C 26,5 C 27 % 48 % 1016,8 hPa 0,0 l/m 4,8 km/h W 270 14,6 C 26,5 C 6,4 km/h
20.06.2018 19:35 38,8 C 26,7 C 27 % 49 % 1016,7 hPa 0,0 l/m 6,4 km/h W 270 15,1 C 26,7 C 9,7 km/h
20.06.2018 19:30 38,9 C 26,7 C 27 % 48 % 1016,7 hPa 0,0 l/m 4,8 km/h W 270 14,8 C 26,7 C 9,7 km/h
20.06.2018 19:25 39,1 C 26,7 C 27 % 48 % 1016,8 hPa 0,0 l/m 6,4 km/h W-NW 292 14,8 C 26,7 C 11,3 km/h
20.06.2018 19:20 39,2 C 26,8 C 27 % 48 % 1016,8 hPa 0,0 l/m 9,7 km/h W 270 14,9 C 26,2 C 12,9 km/h
20.06.2018 19:15 39,3 C 26,8 C 27 % 49 % 1016,9 hPa 0,0 l/m 8,0 km/h W-NW 292 15,2 C 26,5 C 12,9 km/h
20.06.2018 19:10 39,4 C 26,8 C 27 % 47 % 1017,0 hPa 0,0 l/m 11,3 km/h W 270 14,5 C 26,0 C 14,5 km/h
20.06.2018 19:05 39,4 C 26,8 C 27 % 48 % 1017,0 hPa 0,0 l/m 9,7 km/h W 270 14,9 C 26,2 C 12,9 km/h
20.06.2018 19:00 39,6 C 26,8 C 27 % 48 % 1017,0 hPa 0,0 l/m 11,3 km/h W 270 14,9 C 26,0 C 16,1 km/h
20.06.2018 18:55 39,7 C 26,9 C 27 % 48 % 1017,0 hPa 0,0 l/m 14,5 km/h W 270 14,9 C 25,7 C 20,9 km/h
20.06.2018 18:50 39,8 C 27,0 C 27 % 47 % 1017,0 hPa 0,0 l/m 12,9 km/h W 270 14,7 C 26,0 C 19,3 km/h
20.06.2018 18:45 39,8 C 26,9 C 27 % 48 % 1017,2 hPa 0,0 l/m 11,3 km/h W 270 14,9 C 26,1 C 16,1 km/h
20.06.2018 18:40 40,0 C 26,9 C 27 % 48 % 1017,1 hPa 0,0 l/m 16,1 km/h W-NW 292 14,9 C 25,5 C 20,9 km/h
20.06.2018 18:35 40,1 C 27,1 C 27 % 48 % 1017,1 hPa 0,0 l/m 14,5 km/h W-NW 292 15,1 C 25,9 C 19,3 km/h
20.06.2018 18:30 40,1 C 27,1 C 27 % 48 % 1017,1 hPa 0,0 l/m 9,7 km/h W-NW 292 15,1 C 26,5 C 17,7 km/h
20.06.2018 18:25 40,1 C 27,1 C 27 % 49 % 1017,2 hPa 0,0 l/m 11,3 km/h W-NW 292 15,4 C 26,3 C 16,1 km/h
20.06.2018 18:20 40,1 C 27,1 C 27 % 48 % 1017,2 hPa 0,0 l/m 11,3 km/h W-NW 292 15,1 C 26,3 C 17,7 km/h
20.06.2018 18:15 40,0 C 27,0 C 27 % 48 % 1017,3 hPa 0,0 l/m 12,9 km/h W 270 15,0 C 26,0 C 19,3 km/h
20.06.2018 18:10 40,0 C 27,1 C 27 % 49 % 1017,3 hPa 0,0 l/m 11,3 km/h W 270 15,4 C 26,3 C 17,7 km/h
20.06.2018 18:05 39,9 C 27,2 C 28 % 49 % 1017,3 hPa 0,0 l/m 11,3 km/h W 270 15,5 C 26,4 C 14,5 km/h
20.06.2018 18:00 39,8 C 27,3 C 28 % 49 % 1017,4 hPa 0,0 l/m 8,0 km/h SW 225 15,6 C 27,0 C 14,5 km/h
20.06.2018 17:55 39,7 C 27,3 C 28 % 48 % 1017,4 hPa 0,0 l/m 4,8 km/h W-SW 247 15,3 C 27,3 C 8,0 km/h
20.06.2018 17:50 39,5 C 27,2 C 28 % 49 % 1017,4 hPa 0,0 l/m 1,6 km/h S-SW 202 15,5 C 27,2 C 9,7 km/h
20.06.2018 17:45 39,4 C 26,9 C 28 % 49 % 1017,5 hPa 0,0 l/m 9,7 km/h W-SW 247 15,3 C 26,3 C 14,5 km/h
20.06.2018 17:40 39,3 C 27,1 C 28 % 49 % 1017,5 hPa 0,0 l/m 9,7 km/h W-SW 247 15,4 C 26,5 C 17,7 km/h
20.06.2018 17:35 39,2 C 27,1 C 28 % 48 % 1017,5 hPa 0,0 l/m 12,9 km/h W-SW 247 15,1 C 26,1 C 17,7 km/h
20.06.2018 17:30 39,1 C 27,2 C 28 % 49 % 1017,6 hPa 0,0 l/m 11,3 km/h W-NW 292 15,5 C 26,4 C 16,1 km/h
20.06.2018 17:25 38,9 C 27,1 C 29 % 49 % 1017,6 hPa 0,0 l/m 6,4 km/h SW 225 15,4 C 27,1 C 11,3 km/h
20.06.2018 17:20 38,7 C 27,1 C 29 % 48 % 1017,7 hPa 0,0 l/m 11,3 km/h W-SW 247 15,1 C 26,3 C 20,9 km/h
20.06.2018 17:15 38,5 C 27,1 C 29 % 48 % 1017,7 hPa 0,0 l/m 12,9 km/h W 270 15,1 C 26,1 C 19,3 km/h
20.06.2018 17:10 38,3 C 27,2 C 29 % 49 % 1017,7 hPa 0,0 l/m 11,3 km/h W-SW 247 15,5 C 26,4 C 19,3 km/h
20.06.2018 17:05 38,2 C 27,1 C 29 % 48 % 1017,8 hPa 0,0 l/m 8,0 km/h W 270 15,1 C 26,8 C 14,5 km/h
20.06.2018 17:00 37,9 C 26,9 C 29 % 48 % 1018,0 hPa 0,0 l/m 12,9 km/h W-SW 247 14,9 C 25,9 C 22,5 km/h
_ Min-Zeit 04:05 04:40 18:10 15:40 08:25 - 22:10 - - 15:40 10:50 22:15
Minimum _ 23,2 C 16,3 C 27 % 39 % 1013,0 hPa - 0,0 km/h - - 3,7 C 9,9 C 0,0 km/h
_ Max-Zeit 18:20 17:55 03:30 02:25 17:00 17:00 12:10 - - 21:15 17:55 12:05
Maximum _ 40,1 C 27,4 C 58 % 87 % 1018,0 hPa 0,0 l/m 40,2 km/h
W-NW
- - 15,9 C 27,3 C 62,8 km/h
W
Durchschnitt _ 29,7 C 20,5 C 41 % 65 % 1015,7 hPa #0,0 l/m 15,4 km/h W-NW - 13,3 C 18,0 C 22,9 km/h